Location: Alsip
(41.6689°N, 87.7387°W)
Time: 14:30:30
(UTC+00:00)

Cosmos 1328 Rocket - Pass Details

Date: 14 July 2020
Orbit: 601 x 627 km, 82.5° (Epoch: 05 August)

Event Time Altitude Azimuth Distance (km) Brightness Sun altitude
Rises 04:03:40 0° 357° (N) 2,861 8.1 -21.5°
Reaches altitude 10° 04:05:58 10° 3° (N) 1,955 6.9 -21.7°
Maximum altitude 04:10:08 48° 79° (ENE) 793 3.9 -22.1°
Enters shadow 04:10:19 48° 87° (E) 796 3.9 -22.1°
